Date String (YYYY-MM-DD hh:mm:ss) UTC,Instrument flags,Ambient pressure (hPa),Sample flow (lpm),Bypass flow (lpm),Sample temperature (°C),Ambient temperature (°C),ASC tube jacket temperature (°C),LED temperature (°C),Box temperature (°C),Sample RH (%),Span deviation,Mass concentration (μg/m³),Mass concentration (μg/m³),Mass concentration (μg/m³)
DateTimeUTC,F1_M11,P_M11,Q1_M11,Q2_M11,T1_M11,T2_M11,T3_M11,T4_M11,T5_M11,U1_M11,ZSPAN_M11,X0_M11,X2_M11,X1_M11
2022-10-26 14:00:00,,0823.4,5.00,0.00,22.3,20.9,00.0,31.1,24.2,15.4,0000.0,0006.87,0002.38,0001.48
2022-10-26 14:01:00,,0823.4,5.00,0.00,22.3,20.9,00.0,31.1,24.3,15.4,0000.0,0006.73,0002.33,0001.46
2022-10-26 14:02:00,,0823.5,5.00,0.00,22.3,20.9,00.0,31.1,24.3,15.4,0000.0,0006.27,0002.27,0001.45
2022-10-26 14:03:00,,0823.5,5.00,0.00,22.3,20.9,00.0,31.1,24.3,15.4,0000.0,0006.15,0002.24,0001.44
2022-10-26 14:04:00,,0823.6,4.98,0.00,22.3,21.0,00.0,31.1,24.3,15.4,0000.0,0007.43,0002.19,0001.42
2022-10-26 14:05:00,,0823.6,5.01,0.00,22.3,21.0,00.0,31.1,24.3,15.5,0000.0,0007.45,0002.18,0001.41
2022-10-26 14:06:00,,0823.6,5.00,0.00,22.3,21.0,00.0,31.1,24.3,15.5,0000.0,0007.37,0002.17,0001.40
2022-10-26 14:07:00,,0823.6,5.00,0.00,22.3,21.0,00.0,31.1,24.3,15.5,0000.0,0007.59,0002.20,0001.39
2022-10-26 14:08:00,,0823.7,4.98,0.00,22.3,21.0,00.0,31.1,24.3,15.6,0000.0,0007.81,0002.23,0001.38
2022-10-26 14:09:00,,0823.7,5.01,0.00,22.3,21.0,00.0,31.1,24.3,15.7,0000.0,0007.94,0002.29,0001.38
2022-10-26 14:10:00,,0823.6,5.02,0.00,22.3,21.0,00.0,31.1,24.3,15.8,0000.0,0008.10,0002.40,0001.40
2022-10-26 14:11:00,,0823.6,5.00,0.00,22.3,21.0,00.0,31.1,24.3,16.0,0000.0,0008.37,0002.57,0001.43
2022-10-26 14:12:00,,0823.6,5.00,0.00,22.3,21.0,00.0,31.1,24.3,16.3,0000.0,0009.06,0002.71,0001.48
2022-10-26 14:13:00,,0823.7,5.00,0.00,22.4,21.0,00.0,31.1,24.3,16.4,0000.0,0009.18,0002.78,0001.51
2022-10-26 14:14:00,,0823.7,5.00,0.00,22.4,21.0,00.0,31.1,24.3,16.4,0000.0,0009.85,0002.83,0001.56
2022-10-26 14:15:00,,0823.6,5.00,0.00,22.4,21.0,00.0,31.1,24.4,16.5,0000.0,0009.02,0002.93,0001.62
2022-10-26 14:16:00,,0823.7,5.00,0.00,22.4,21.0,00.0,31.1,24.4,16.6,0000.0,0009.92,0003.09,0001.69
2022-10-26 14:17:00,,0823.7,5.00,0.00,22.4,21.0,00.0,31.1,24.4,16.6,0000.0,0010.36,0003.19,0001.76
2022-10-26 14:18:00,,0823.7,5.00,0.00,22.4,21.0,00.0,31.1,24.4,16.7,0000.0,0010.25,0003.23,0001.83
2022-10-26 14:19:00,,0823.7,4.99,0.00,22.4,21.0,00.0,31.2,24.4,16.7,0000.0,0010.06,0003.28,0001.92
2022-10-26 14:20:00,,0823.7,5.00,0.00,22.4,21.0,00.0,31.2,24.4,16.8,0000.0,0011.18,0003.35,0001.98
2022-10-26 14:21:00,,0823.7,5.00,0.00,22.4,21.0,00.0,31.2,24.4,16.8,0000.0,0011.22,0003.38,0002.04
2022-10-26 14:22:00,,0823.6,5.00,0.00,22.4,21.0,00.0,31.2,24.4,16.8,0000.0,0011.06,0003.38,0002.10
2022-10-26 14:23:00,,0823.7,5.00,0.00,22.4,21.1,00.0,31.2,24.4,16.8,0000.0,0010.53,0003.37,0002.14
2022-10-26 14:24:00,,0823.7,5.01,0.00,22.4,21.1,00.0,31.2,24.4,16.9,0000.0,0010.17,0003.41,0002.18
2022-10-26 14:25:00,,0823.7,5.00,0.00,22.4,21.1,00.0,31.2,24.4,16.9,0000.0,0010.31,0003.49,0002.23
2022-10-26 14:26:00,,0823.7,4.98,0.00,22.4,21.1,00.0,31.2,24.4,16.9,0000.0,0011.40,0003.50,0002.26
2022-10-26 14:27:00,,0823.7,4.99,0.00,22.4,21.1,00.0,31.2,24.4,17.0,0000.0,0012.67,0003.49,0002.28
2022-10-26 14:28:00,,0823.7,5.02,0.00,22.4,21.1,00.0,31.2,24.4,17.0,0000.0,0012.78,0003.50,0002.29
2022-10-26 14:29:00,,0823.7,4.97,0.00,22.4,21.1,00.0,31.2,24.4,17.0,0000.0,0013.22,0003.51,0002.33
2022-10-26 14:30:00,,0823.7,5.02,0.00,22.4,21.1,00.0,31.2,24.4,17.1,0000.0,0013.19,0003.50,0002.33
2022-10-26 14:31:00,,0823.7,5.00,0.00,22.4,21.0,00.0,31.2,24.4,17.0,0000.0,0012.32,0003.47,0002.34
2022-10-26 14:32:00,,0823.7,4.99,0.00,22.4,21.0,00.0,31.2,24.4,17.0,0000.0,0012.93,0003.49,0002.37
2022-10-26 14:33:00,,0823.7,4.99,0.00,22.4,21.1,00.0,31.2,24.4,17.1,0000.0,0013.33,0003.47,0002.39
2022-10-26 14:34:00,,0823.7,5.00,0.00,22.4,21.1,00.0,31.2,24.4,17.1,0000.0,0014.10,0003.50,0002.41
2022-10-26 14:35:00,,0823.7,5.01,0.00,22.5,21.5,00.0,31.2,24.6,17.0,0000.0,0014.05,0003.50,0002.43
2022-10-26 14:36:00,,0823.7,4.99,0.00,22.6,22.3,00.0,31.2,24.7,17.0,0000.0,0013.72,0003.48,0002.46
2022-10-26 14:37:00,,0823.7,5.01,0.00,22.7,22.3,00.0,31.3,24.8,17.0,0000.0,0012.59,0003.51,0002.47
2022-10-26 14:38:00,,0823.6,4.98,0.00,22.7,22.1,00.0,31.3,24.8,17.0,0000.0,0011.07,0003.58,0002.51
2022-10-26 14:39:00,,0823.6,5.00,0.00,22.7,21.9,00.0,31.3,24.8,17.0,0000.0,0010.33,0003.61,0002.54
2022-10-26 14:40:00,,0823.6,5.00,0.00,22.7,21.8,00.0,31.3,24.8,16.9,0000.0,0010.65,0003.66,0002.56
2022-10-26 14:41:00,,0823.6,5.00,0.00,22.7,21.7,00.0,31.4,24.8,17.0,0000.0,0010.58,0003.70,0002.60
2022-10-26 14:42:00,,0823.5,5.00,0.00,22.7,21.7,00.0,31.4,24.8,17.0,0000.0,0010.85,0003.75,0002.63
2022-10-26 14:43:00,,0823.5,5.00,0.00,22.7,21.6,00.0,31.4,24.8,17.0,0000.0,0010.42,0003.75,0002.65
2022-10-26 14:44:00,,0823.5,5.00,0.00,22.7,21.6,00.0,31.4,24.8,17.0,0000.0,0010.68,0003.80,0002.69
2022-10-26 14:45:00,,0823.4,5.02,0.00,22.7,21.6,00.0,31.4,24.7,17.1,0000.0,0010.45,0003.84,0002.72
2022-10-26 14:46:00,,0823.4,5.00,0.00,22.7,21.5,00.0,31.4,24.7,17.0,0000.0,0010.43,0003.89,0002.76
2022-10-26 14:47:00,,0823.4,5.00,0.00,22.7,21.5,00.0,31.4,24.7,17.1,0000.0,0010.42,0003.91,0002.79
2022-10-26 14:48:00,,0823.4,5.00,0.00,22.7,21.4,00.0,31.4,24.7,17.1,0000.0,0010.38,0003.91,0002.85
2022-10-26 14:49:00,,0823.4,5.00,0.00,22.7,21.4,00.0,31.4,24.7,17.2,0000.0,0010.65,0003.91,0002.90
2022-10-26 14:50:00,,0823.5,4.99,0.00,22.7,21.4,00.0,31.4,24.7,17.3,0000.0,0010.69,0003.92,0002.94
2022-10-26 14:51:00,,0823.5,5.00,0.00,22.7,21.4,00.0,31.4,24.7,17.3,0000.0,0010.61,0003.94,0002.98
2022-10-26 14:52:00,,0823.5,5.02,0.00,22.7,21.3,00.0,31.4,24.7,17.3,0000.0,0011.38,0003.96,0003.01
2022-10-26 14:53:00,,0823.5,5.00,0.00,22.7,21.2,00.0,31.4,24.6,17.2,0000.0,0011.58,0004.02,0003.07
2022-10-26 14:54:00,,0823.5,4.99,0.00,22.7,21.2,00.0,31.4,24.6,17.2,0000.0,0011.79,0004.08,0003.12
2022-10-26 14:55:00,,0823.5,5.00,0.00,22.7,21.2,00.0,31.4,24.6,17.1,0000.0,0011.11,0004.07,0003.14
2022-10-26 14:56:00,,0823.5,5.00,0.00,22.7,21.2,00.0,31.4,24.5,17.2,0000.0,0010.91,0004.08,0003.17
2022-10-26 14:57:00,,0823.5,5.00,0.00,22.6,21.1,00.0,31.4,24.5,17.2,0000.0,0011.43,0004.06,0003.19
2022-10-26 14:58:00,,0823.4,4.99,0.00,22.6,21.0,00.0,31.4,24.5,17.1,0000.0,0011.72,0004.05,0003.23
2022-10-26 14:59:00,,0823.5,4.99,0.00,22.6,21.0,00.0,31.4,24.5,17.2,0000.0,0012.69,0004.11,0003.25
